Location: Unspecified
(0.0000°N, 0.0000°E)
Time: 15:55:44
(UTC+00:00)

Altair - Visible Passes

Search period start: 01 August 2014 00:00
Search period end: 11 August 2014 00:00
Orbit: 1502 x 1682 km, 47.2° (Epoch: 31 July)

Date Brightness Start Highest point End Pass type
(mag) Time Alt. Az. Time Alt. Az. Time Alt. Az.
07 Aug 9.4 21:05:07 10° SSW 21:06:04 14° SSW 21:06:04 14° SSW visible
08 Aug 8.8 20:40:05 10° SSW 20:43:14 23° SSW 20:43:14 23° SSW visible
09 Aug 8.3 20:15:06 10° SSW 20:20:35 33° S 20:20:35 33° S visible
10 Aug 7.9 19:50:08 10° SSW 19:58:09 39° SE 19:58:09 39° SE visible
10 Aug 9.4 21:54:43 10° WSW 21:56:18 16° WSW 21:56:18 16° WSW visible
